Regional Weather Roundup
Issued by NWS Jackson, KY

Home | Current Version | Previous Version | Graphics & Text | Print | Product List | Glossary On
Versions: 1 2 3 4 5 6 7 8 9 10 11 12 13 14 15 16 17 18 19 20 21 22 23 24 25 26 27 28 29 30 31 32 33 34 35 36 37 38 39 40 41 42 43 44 45 46 47 48 49 50
000
ASUS43 KJKL 201410
RWRJKL

EAST KENTUCKY HOURLY WEATHER ROUNDUP
NATIONAL WEATHER SERVICE JACKSON KY
1000 AM EDT MON APR 20 2015

NOTE: "FAIR" INDICATES FEW OR NO CLOUDS BELOW 12,000 FEET WITH
NO SIGNIFICANT WEATHER AND/OR OBSTRUCTIONS TO VISIBILITY.

* THESE REPORTS ARE NOT UNDER NWS QUALITY CONTROL AND MAY NOT
  REPORT WEATHER SUCH AS PRECIPITATION AND FOG.

KYZ079-080-083-085-087-088-110-112-115-119-120-201500
...EASTERN KENTUCKY...

CITY           SKY/WX    TMP DP  RH WIND       PRES   REMARKS
JACKSON        CLOUDY    60  52  74 SW8       29.60R
LONDON         CLOUDY    61  50  67 SW12G22   29.63R
SOMERSET*      CLOUDY    59  52  77 SW10G22   29.64R
MONTICELLO*    PTSUNNY   64  56  75 SW15G24   29.65S
MIDDLESBORO*   PTSUNNY   62  56  79 S8        29.66R
HARLAN APT*    PTSUNNY   63  50  63 W6        29.64S
HAZARD APT*    PTSUNNY   64  54  68 SW13G20   29.60R
BLACK MTN*       N/A     48  48 100 S8          N/A
PIKEVILLE APT* SUNNY     63  54  72 S5        29.60S
BIG SANDY*     CLOUDY    65  53  65 SW9       29.58S
$$

KYZ035-036-041-042-044-050-067-078-099-201500
...CENTRAL KENTUCKY...

CITY           SKY/WX    TMP DP  RH WIND       PRES   REMARKS
MT STERLING*   CLOUDY    59  54  82 W14G21    29.57R
FLEMING/MASON* CLOUDY    59  54  82 SW16G24   29.55R
DANVILLE*      LGT RAIN  57  54  88 W9        29.59R
RICHMOND*      CLOUDY    61  54  77 SW12G18   29.58R
LEXINGTON      LGT RAIN  58  54  86 SW14G28   29.56R
FRANKFORT      LGT RAIN  58  54  86 SW16      29.53R
$$

KYZ091>093-OHZ055-061-077-WVZ005-015-034-035-042-201500
...SOUTHERN OHIO/WEST VIRGINIA...

CITY           SKY/WX    TMP DP  RH WIND       PRES   REMARKS
COVINGTON      CLOUDY    58  54  86 SW14G23   29.48S
COLUMBUS       CLOUDY    62  56  80 S13G26    29.44F
DAYTON         LGT RAIN  59  55  87 SW21      29.43S
WILMINGTON     CLOUDY    58  52  80 SW16G28   29.46R
HUNTINGTON     CLOUDY    64  54  69 SW14G20   29.54S
CHARLESTON     PTSUNNY   68  53  58 SW12G22   29.56F
PINEVILLE*     CLOUDY    64  57  78 MISG      29.68F
BECKLEY        CLOUDY    61  51  70 SW15G25   29.66F
BLUEFIELD      CLOUDY    65  51  60 SW15G24   29.69F
$$

VAZ002-007-008-TNZ017-027-036-066-071-201500
...SOUTHWEST VIRGINIA/EAST TENNESSEE...

CITY           SKY/WX    TMP DP  RH WIND       PRES   REMARKS
WISE*          PTSUNNY   59  54  82 S12G22    29.68R
JONESVILLE*    PTSUNNY   63  55  77 SW7       29.69R
ABINGDON*      PTSUNNY   60  56  87 W5        29.69F
BRISTOL        PTSUNNY   60  55  83 CALM      29.68F
KNOXVILLE      MOSUNNY   66  57  72 SW18      29.66R
OAK RIDGE      CLOUDY    62  57  83 VRB7      29.69R
CROSSVILLE     PTSUNNY   59  52  77 W13       29.69R
NASHVILLE      CLOUDY    61  55  81 SW8       29.67R
$$

...KEY TO REMARKS...
VSB - VISIBILITY IN MILES
WCI - WIND CHILL INDEX
HX  - HEAT INDEX

$$



USA.gov is the U.S. government's official web portal to all federal, state and local government web resources and services.